date,time,SUV Intensity [MED/Hr],UV Index,Daily total [MED],Since Last [MED]
04/04/2023,00:04:51,-0.000,0.0,0.0,0.0
04/04/2023,00:05:51,0.000,0.0,0.0,0.0
04/04/2023,00:06:50,0.000,0.0,0.0,0.0
04/04/2023,00:07:51,0.000,0.0,0.0,0.0
04/04/2023,00:08:50,0.000,0.0,0.0,0.0
04/04/2023,00:09:50,0.001,0.0,0.0,0.0
04/04/2023,00:10:51,0.000,0.0,0.0,0.0
04/04/2023,00:11:50,0.000,0.0,0.0,0.0
04/04/2023,00:12:50,0.000,0.0,0.0,0.0
04/04/2023,00:13:51,0.000,0.0,0.0,0.0
04/04/2023,00:14:50,0.000,0.0,0.0,0.0
04/04/2023,00:15:50,0.000,0.0,0.0,0.0
04/04/2023,00:16:50,0.000,0.0,0.0,0.0
04/04/2023,00:17:51,0.000,0.0,0.0,0.0
04/04/2023,00:18:51,0.001,0.0,0.0,0.0
04/04/2023,00:19:51,0.000,0.0,0.0,0.0
04/04/2023,00:20:51,0.000,0.0,0.0,0.0
04/04/2023,00:21:50,0.000,0.0,0.0,0.0
04/04/2023,00:22:51,-0.000,0.0,0.0,0.0
04/04/2023,00:23:51,0.000,0.0,0.0,0.0
04/04/2023,00:24:51,0.001,0.0,0.0,0.0
04/04/2023,00:25:51,-0.000,0.0,0.0,0.0
04/04/2023,00:26:51,0.000,0.0,0.0,0.0
04/04/2023,00:27:50,-0.001,0.0,0.0,0.0
04/04/2023,00:28:51,0.000,0.0,0.0,0.0
04/04/2023,00:29:51,-0.001,0.0,0.0,0.0
04/04/2023,00:30:51,0.000,0.0,0.0,0.0
04/04/2023,00:31:51,0.000,0.0,0.0,0.0
04/04/2023,00:32:51,0.000,0.0,0.0,0.0
04/04/2023,00:33:51,0.000,0.0,0.0,0.0
04/04/2023,00:34:50,0.001,0.0,0.0,0.0
04/04/2023,00:35:50,-0.000,0.0,0.0,0.0
04/04/2023,00:36:50,-0.000,0.0,0.0,0.0
04/04/2023,00:37:50,-0.000,0.0,0.0,0.0
04/04/2023,00:38:51,0.001,0.0,0.0,0.0
04/04/2023,00:39:51,0.000,0.0,0.0,0.0
04/04/2023,00:40:51,0.000,0.0,0.0,0.0
04/04/2023,00:41:50,0.000,0.0,0.0,0.0
04/04/2023,00:42:52,-0.000,0.0,0.0,0.0
04/04/2023,00:43:51,0.000,0.0,0.0,0.0
04/04/2023,00:44:51,0.000,0.0,0.0,0.0
04/04/2023,00:45:50,0.000,0.0,0.0,0.0
04/04/2023,00:46:51,0.000,0.0,0.0,0.0
04/04/2023,00:47:50,-0.000,0.0,0.0,0.0
04/04/2023,00:48:51,0.000,0.0,0.0,0.0
04/04/2023,00:49:51,0.000,0.0,0.0,0.0
04/04/2023,00:50:51,0.000,0.0,0.0,0.0
04/04/2023,00:51:50,-0.000,0.0,0.0,0.0
04/04/2023,00:52:51,0.000,0.0,0.0,0.0
04/04/2023,00:53:51,0.000,0.0,0.0,0.0
04/04/2023,00:54:51,-0.000,0.0,0.0,0.0
04/04/2023,00:55:51,0.000,0.0,0.0,0.0
04/04/2023,00:56:51,0.000,0.0,0.0,0.0
04/04/2023,00:57:51,0.000,0.0,0.0,0.0
04/04/2023,00:58:51,0.000,0.0,0.0,0.0
04/04/2023,00:59:50,0.001,0.0,0.0,0.0
04/04/2023,01:00:50,0.001,0.0,0.0,0.0
04/04/2023,01:01:50,0.000,0.0,0.0,0.0
04/04/2023,01:02:51,0.001,0.0,0.0,0.0
04/04/2023,01:03:50,0.000,0.0,0.0,0.0
04/04/2023,01:04:50,0.000,0.0,0.0,0.0
04/04/2023,01:05:50,0.001,0.0,0.0,0.0
04/04/2023,01:06:50,0.000,0.0,0.0,0.0
04/04/2023,01:07:50,0.001,0.0,0.0,0.0
04/04/2023,01:08:51,0.001,0.0,0.0,0.0
04/04/2023,01:09:51,0.000,0.0,0.0,0.0
04/04/2023,01:10:51,0.000,0.0,0.0,0.0
04/04/2023,01:11:51,0.001,0.0,0.0,0.0
04/04/2023,01:12:50,0.000,0.0,0.0,0.0
04/04/2023,01:13:50,0.000,0.0,0.0,0.0
04/04/2023,01:14:52,0.000,0.0,0.0,0.0
04/04/2023,01:15:51,0.001,0.0,0.0,0.0
04/04/2023,01:16:51,0.001,0.0,0.0,0.0
04/04/2023,01:17:51,0.000,0.0,0.0,0.0
04/04/2023,01:18:50,0.000,0.0,0.0,0.0
04/04/2023,01:19:50,0.000,0.0,0.0,0.0
04/04/2023,01:20:50,0.000,0.0,0.0,0.0
04/04/2023,01:21:50,0.000,0.0,0.0,0.0
04/04/2023,01:22:50,0.001,0.0,0.0,0.0
04/04/2023,01:23:51,-0.000,0.0,0.0,0.0
04/04/2023,01:24:51,-0.000,0.0,0.0,0.0
04/04/2023,01:25:51,-0.001,0.0,0.0,0.0
04/04/2023,01:26:50,0.001,0.0,0.0,0.0
04/04/2023,01:27:50,0.000,0.0,0.0,0.0
04/04/2023,01:28:50,0.001,0.0,0.0,0.0
04/04/2023,01:29:51,0.001,0.0,0.0,0.0
04/04/2023,01:30:51,0.000,0.0,0.0,0.0
04/04/2023,01:31:50,-0.000,0.0,0.0,0.0
04/04/2023,01:32:51,0.000,0.0,0.0,0.0
04/04/2023,01:33:50,-0.000,0.0,0.0,0.0
04/04/2023,01:34:50,0.000,0.0,0.0,0.0
04/04/2023,01:35:50,0.000,0.0,0.0,0.0
04/04/2023,01:36:51,0.001,0.0,0.0,0.0
04/04/2023,01:37:51,0.002,0.0,0.0,0.0
04/04/2023,01:38:50,0.001,0.0,0.0,0.0
04/04/2023,01:39:51,0.001,0.0,0.0,0.0
04/04/2023,01:40:50,0.000,0.0,0.0,0.0
04/04/2023,01:41:51,0.002,0.0,0.0,0.0
04/04/2023,01:42:51,0.001,0.0,0.0,0.0
04/04/2023,01:43:51,-0.000,0.0,0.0,0.0
04/04/2023,01:44:51,0.000,0.0,0.0,0.0
04/04/2023,01:45:51,0.001,0.0,0.0,0.0
04/04/2023,01:46:51,0.000,0.0,0.0,0.0
04/04/2023,01:47:51,0.001,0.0,0.0,0.0
04/04/2023,01:48:51,0.001,0.0,0.0,0.0
04/04/2023,01:49:51,0.000,0.0,0.0,0.0
04/04/2023,01:50:50,0.001,0.0,0.0,0.0
04/04/2023,01:51:51,0.000,0.0,0.0,0.0
04/04/2023,01:52:51,0.001,0.0,0.0,0.0
04/04/2023,01:53:50,0.001,0.0,0.0,0.0
04/04/2023,01:54:50,0.001,0.0,0.0,0.0
04/04/2023,01:55:50,0.000,0.0,0.0,0.0
04/04/2023,01:56:51,0.001,0.0,0.0,0.0
04/04/2023,01:57:51,0.001,0.0,0.0,0.0
04/04/2023,01:58:51,0.001,0.0,0.0,0.0
04/04/2023,01:59:51,-0.000,0.0,0.0,0.0
04/04/2023,02:00:51,0.001,0.0,0.0,0.0
04/04/2023,02:01:51,0.001,0.0,0.0,0.0
04/04/2023,02:02:51,0.001,0.0,0.0,0.0
04/04/2023,02:03:51,0.001,0.0,0.0,0.0
04/04/2023,02:04:50,0.001,0.0,0.0,0.0
04/04/2023,02:05:51,-0.000,0.0,0.0,0.0
04/04/2023,02:06:51,0.000,0.0,0.0,0.0
04/04/2023,02:07:51,0.000,0.0,0.0,0.0
04/04/2023,02:08:51,0.000,0.0,0.0,0.0
04/04/2023,02:09:51,0.000,0.0,0.0,0.0
04/04/2023,02:10:51,0.000,0.0,0.0,0.0
04/04/2023,02:11:51,0.001,0.0,0.0,0.0
04/04/2023,02:12:50,0.002,0.0,0.0,0.0
04/04/2023,02:13:51,0.001,0.0,0.0,0.0
04/04/2023,02:14:51,0.001,0.0,0.0,0.0
04/04/2023,02:15:51,0.001,0.0,0.0,0.0
04/04/2023,02:16:51,0.000,0.0,0.0,0.0
04/04/2023,02:17:51,0.001,0.0,0.0,0.0
04/04/2023,02:18:51,0.001,0.0,0.0,0.0
04/04/2023,02:19:50,0.000,0.0,0.0,0.0
04/04/2023,02:20:50,0.002,0.0,0.0,0.0
04/04/2023,02:21:50,0.001,0.0,0.0,0.0
04/04/2023,02:22:51,0.000,0.0,0.0,0.0
04/04/2023,02:23:51,0.001,0.0,0.0,0.0
04/04/2023,02:24:51,0.001,0.0,0.0,0.0
04/04/2023,02:25:51,0.001,0.0,0.0,0.0
04/04/2023,02:26:51,0.001,0.0,0.0,0.0
04/04/2023,02:27:50,0.001,0.0,0.0,0.0
04/04/2023,02:28:51,0.001,0.0,0.0,0.0
04/04/2023,02:29:51,0.000,0.0,0.0,0.0
04/04/2023,02:30:51,0.001,0.0,0.0,0.0
04/04/2023,02:31:51,0.000,0.0,0.0,0.0
04/04/2023,02:32:51,0.002,0.0,0.0,0.0
04/04/2023,02:33:51,0.000,0.0,0.0,0.0
04/04/2023,02:34:51,0.000,0.0,0.0,0.0
04/04/2023,02:35:51,0.001,0.0,0.0,0.0
04/04/2023,02:36:50,0.001,0.0,0.0,0.0
04/04/2023,02:37:51,0.001,0.0,0.0,0.0
04/04/2023,02:38:50,-0.000,0.0,0.0,0.0
04/04/2023,02:39:51,0.001,0.0,0.0,0.0
04/04/2023,02:40:51,0.001,0.0,0.0,0.0
04/04/2023,02:41:51,0.001,0.0,0.0,0.0
04/04/2023,02:42:51,-0.000,0.0,0.0,0.0
04/04/2023,02:43:51,0.000,0.0,0.0,0.0
04/04/2023,02:44:51,0.000,0.0,0.0,0.0
04/04/2023,02:45:51,0.001,0.0,0.0,0.0
04/04/2023,02:46:51,0.000,0.0,0.0,0.0
04/04/2023,02:47:51,-0.000,0.0,0.0,0.0
04/04/2023,02:48:50,0.001,0.0,0.0,0.0
04/04/2023,02:49:51,0.001,0.0,0.0,0.0
04/04/2023,02:50:51,0.001,0.0,0.0,0.0
04/04/2023,02:51:51,0.000,0.0,0.0,0.0
04/04/2023,02:52:51,0.001,0.0,0.0,0.0
04/04/2023,02:53:51,0.001,0.0,0.0,0.0
04/04/2023,02:54:51,-0.000,0.0,0.0,0.0
04/04/2023,02:55:51,0.001,0.0,0.0,0.0
04/04/2023,02:56:51,0.000,0.0,0.0,0.0
04/04/2023,02:57:50,0.002,0.0,0.0,0.0
04/04/2023,02:58:50,0.001,0.0,0.0,0.0
04/04/2023,02:59:51,0.001,0.0,0.0,0.0
04/04/2023,03:00:51,0.001,0.0,0.0,0.0
04/04/2023,03:01:51,0.001,0.0,0.0,0.0
04/04/2023,03:02:51,0.000,0.0,0.0,0.0
04/04/2023,03:03:50,0.002,0.0,0.0,0.0
04/04/2023,03:04:50,0.001,0.0,0.0,0.0
04/04/2023,03:05:51,0.001,0.0,0.0,0.0
04/04/2023,03:06:52,0.000,0.0,0.0,0.0
04/04/2023,03:07:51,0.001,0.0,0.0,0.0
04/04/2023,03:08:50,0.001,0.0,0.0,0.0
04/04/2023,03:09:52,0.001,0.0,0.0,0.0
04/04/2023,03:10:52,0.001,0.0,0.0,0.0
04/04/2023,03:11:51,0.001,0.0,0.0,0.0
04/04/2023,03:12:50,0.002,0.0,0.0,0.0
04/04/2023,03:13:51,-0.000,0.0,0.0,0.0
04/04/2023,03:14:51,0.001,0.0,0.0,0.0
04/04/2023,03:15:51,0.001,0.0,0.0,0.0
04/04/2023,03:16:51,0.000,0.0,0.0,0.0
04/04/2023,03:17:51,0.001,0.0,0.0,0.0
04/04/2023,03:18:50,0.001,0.0,0.0,0.0
04/04/2023,03:19:51,0.001,0.0,0.0,0.0
04/04/2023,03:20:51,0.001,0.0,0.0,0.0
04/04/2023,03:21:51,0.001,0.0,0.0,0.0
04/04/2023,03:22:51,0.001,0.0,0.0,0.0
04/04/2023,03:23:51,0.001,0.0,0.0,0.0
04/04/2023,03:24:51,0.001,0.0,0.0,0.0
04/04/2023,03:25:51,0.001,0.0,0.0,0.0
04/04/2023,03:26:51,0.000,0.0,0.0,0.0
04/04/2023,03:27:51,0.001,0.0,0.0,0.0
04/04/2023,03:28:51,0.001,0.0,0.0,0.0
04/04/2023,03:29:51,0.001,0.0,0.0,0.0
04/04/2023,03:30:51,0.001,0.0,0.0,0.0
04/04/2023,03:31:51,0.001,0.0,0.0,0.0
04/04/2023,03:32:51,0.001,0.0,0.0,0.0
04/04/2023,03:33:51,0.001,0.0,0.0,0.0
04/04/2023,03:34:51,0.001,0.0,0.0,0.0
04/04/2023,03:35:51,0.001,0.0,0.0,0.0
04/04/2023,03:36:51,-0.000,0.0,0.0,0.0
04/04/2023,03:37:50,0.000,0.0,0.0,0.0
04/04/2023,03:38:51,0.000,0.0,0.0,0.0
04/04/2023,03:39:51,0.000,0.0,0.0,0.0
04/04/2023,03:40:50,0.001,0.0,0.0,0.0
04/04/2023,03:41:53,0.000,0.0,0.0,0.0
04/04/2023,03:42:51,0.000,0.0,0.0,0.0
04/04/2023,03:43:51,0.001,0.0,0.0,0.0
04/04/2023,03:44:50,0.001,0.0,0.0,0.0
04/04/2023,03:45:50,0.001,0.0,0.0,0.0
04/04/2023,03:46:51,0.002,0.0,0.0,0.0
04/04/2023,03:47:51,-0.000,0.0,0.0,0.0
04/04/2023,03:48:51,0.001,0.0,0.0,0.0
04/04/2023,03:49:51,0.000,0.0,0.0,0.0
04/04/2023,03:50:51,0.002,0.0,0.0,0.0
04/04/2023,03:51:51,0.000,0.0,0.0,0.0
04/04/2023,03:52:51,0.001,0.0,0.0,0.0
04/04/2023,03:53:51,0.000,0.0,0.0,0.0
04/04/2023,03:54:51,0.001,0.0,0.0,0.0
04/04/2023,03:55:51,-0.000,0.0,0.0,0.0
04/04/2023,03:56:51,0.001,0.0,0.0,0.0
04/04/2023,03:57:51,0.001,0.0,0.0,0.0
04/04/2023,03:58:51,0.001,0.0,0.0,0.0
04/04/2023,03:59:51,-0.000,0.0,0.0,0.0
04/04/2023,04:00:51,0.000,0.0,0.0,0.0
04/04/2023,04:01:51,0.001,0.0,0.0,0.0
04/04/2023,04:02:51,0.001,0.0,0.0,0.0
04/04/2023,04:03:51,0.001,0.0,0.0,0.0
04/04/2023,04:04:51,0.001,0.0,0.0,0.0
04/04/2023,04:05:51,0.002,0.0,0.0,0.0
04/04/2023,04:06:52,0.001,0.0,0.0,0.0
04/04/2023,04:07:50,0.002,0.0,0.0,0.0
04/04/2023,04:08:51,0.000,0.0,0.0,0.0
04/04/2023,04:09:50,0.001,0.0,0.0,0.0
04/04/2023,04:10:51,0.000,0.0,0.0,0.0
04/04/2023,04:11:51,0.001,0.0,0.0,0.0
04/04/2023,04:12:51,0.001,0.0,0.0,0.0
04/04/2023,04:13:51,0.001,0.0,0.0,0.0
04/04/2023,04:14:51,0.002,0.0,0.0,0.0
04/04/2023,04:15:51,-0.000,0.0,0.0,0.0
04/04/2023,04:16:51,0.001,0.0,0.0,0.0
04/04/2023,04:17:51,0.000,0.0,0.0,0.0
04/04/2023,04:18:51,0.002,0.0,0.0,0.0
04/04/2023,04:19:51,0.001,0.0,0.0,0.0
04/04/2023,04:20:51,0.000,0.0,0.0,0.0
04/04/2023,04:21:51,0.002,0.0,0.0,0.0
04/04/2023,04:22:51,0.001,0.0,0.0,0.0
04/04/2023,04:23:51,0.001,0.0,0.0,0.0
04/04/2023,04:24:51,0.000,0.0,0.0,0.0
04/04/2023,04:25:50,0.001,0.0,0.0,0.0
04/04/2023,04:26:52,0.001,0.0,0.0,0.0
04/04/2023,04:27:51,0.001,0.0,0.0,0.0
04/04/2023,04:28:51,0.001,0.0,0.0,0.0
04/04/2023,04:29:51,0.001,0.0,0.0,0.0
04/04/2023,04:30:50,0.002,0.0,0.0,0.0
04/04/2023,04:31:51,0.002,0.0,0.0,0.0
04/04/2023,04:32:51,0.002,0.0,0.0,0.0
04/04/2023,04:33:51,0.001,0.0,0.0,0.0
04/04/2023,04:34:51,0.000,0.0,0.0,0.0
04/04/2023,04:35:51,0.002,0.0,0.0,0.0
04/04/2023,04:36:51,0.002,0.0,0.0,0.0
04/04/2023,04:37:51,0.002,0.0,0.0,0.0
04/04/2023,04:38:51,0.001,0.0,0.0,0.0
04/04/2023,04:39:51,0.001,0.0,0.0,0.0
04/04/2023,04:40:51,0.000,0.0,0.0,0.0
04/04/2023,04:41:51,0.001,0.0,0.0,0.0
04/04/2023,04:42:50,0.001,0.0,0.0,0.0
04/04/2023,04:43:51,0.001,0.0,0.0,0.0
04/04/2023,04:44:51,0.001,0.0,0.0,0.0
04/04/2023,04:45:51,0.001,0.0,0.0,0.0
04/04/2023,04:46:51,0.001,0.0,0.0,0.0
04/04/2023,04:47:51,0.001,0.0,0.0,0.0
04/04/2023,04:48:51,0.002,0.0,0.0,0.0
04/04/2023,04:49:51,0.001,0.0,0.0,0.0
04/04/2023,04:50:51,0.001,0.0,0.0,0.0
04/04/2023,04:51:51,0.001,0.0,0.0,0.0
04/04/2023,04:52:51,0.000,0.0,0.0,0.0
04/04/2023,04:53:51,0.001,0.0,0.0,0.0
04/04/2023,04:54:51,0.001,0.0,0.0,0.0
04/04/2023,04:55:51,0.001,0.0,0.0,0.0
04/04/2023,04:56:51,0.001,0.0,0.0,0.0
04/04/2023,04:57:51,0.000,0.0,0.0,0.0
04/04/2023,04:58:51,0.001,0.0,0.0,0.0
04/04/2023,04:59:51,0.001,0.0,0.0,0.0
04/04/2023,05:00:51,0.001,0.0,0.0,0.0
04/04/2023,05:01:51,0.001,0.0,0.0,0.0
04/04/2023,05:02:51,0.002,0.0,0.0,0.0
04/04/2023,05:03:51,0.001,0.0,0.0,0.0
04/04/2023,05:04:51,0.001,0.0,0.0,0.0
04/04/2023,05:05:51,0.001,0.0,0.0,0.0
04/04/2023,05:06:51,0.001,0.0,0.0,0.0
04/04/2023,05:07:51,0.002,0.0,0.0,0.0
04/04/2023,05:08:51,0.001,0.0,0.0,0.0
04/04/2023,05:09:51,0.001,0.0,0.0,0.0
04/04/2023,05:10:51,0.001,0.0,0.0,0.0
04/04/2023,05:11:51,0.001,0.0,0.0,0.0
04/04/2023,05:12:51,0.001,0.0,0.0,0.0
04/04/2023,05:13:51,0.000,0.0,0.0,0.0
04/04/2023,05:14:51,0.002,0.0,0.0,0.0
04/04/2023,05:15:51,0.001,0.0,0.0,0.0
04/04/2023,05:16:51,0.001,0.0,0.0,0.0
04/04/2023,05:17:51,0.001,0.0,0.0,0.0
04/04/2023,05:18:51,0.000,0.0,0.0,0.0
04/04/2023,05:19:51,0.002,0.0,0.0,0.0
04/04/2023,05:20:51,0.001,0.0,0.0,0.0
04/04/2023,05:21:51,0.002,0.0,0.0,0.0
04/04/2023,05:22:51,0.001,0.0,0.0,0.0
04/04/2023,05:23:51,0.002,0.0,0.0,0.0
04/04/2023,05:24:51,0.002,0.0,0.0,0.0
04/04/2023,05:25:51,0.003,0.0,0.0,0.0
04/04/2023,05:26:51,0.001,0.0,0.0,0.0
04/04/2023,05:27:51,0.002,0.0,0.0,0.0
04/04/2023,05:28:51,0.002,0.0,0.0,0.0
04/04/2023,05:29:51,0.002,0.0,0.0,0.0
04/04/2023,05:30:51,0.002,0.0,0.0,0.0
04/04/2023,05:31:51,0.003,0.0,0.0,0.0
04/04/2023,05:32:51,0.002,0.0,0.0,0.0
04/04/2023,05:33:51,0.001,0.0,0.0,0.0
04/04/2023,05:34:51,0.003,0.0,0.0,0.0
04/04/2023,05:35:51,0.003,0.0,0.0,0.0
04/04/2023,05:36:51,0.003,0.0,0.0,0.0
04/04/2023,05:37:51,0.003,0.0,0.0,0.0
04/04/2023,05:38:50,0.003,0.0,0.0,0.0
04/04/2023,05:39:51,0.003,0.0,0.0,0.0
04/04/2023,05:40:51,0.004,0.0,0.0,0.0
04/04/2023,05:41:51,0.004,0.0,0.0,0.0
04/04/2023,05:42:51,0.004,0.0,0.0,0.0
04/04/2023,05:43:51,0.004,0.0,0.0,0.0
04/04/2023,05:44:51,0.004,0.0,0.0,0.0
04/04/2023,05:45:51,0.005,0.0,0.0,0.0
04/04/2023,05:46:51,0.006,0.0,0.0,0.0
04/04/2023,05:47:51,0.005,0.0,0.0,0.0
04/04/2023,05:48:51,0.006,0.0,0.0,0.0
04/04/2023,05:49:51,0.005,0.0,0.0,0.0
04/04/2023,05:50:51,0.006,0.0,0.0,0.0
04/04/2023,05:51:51,0.006,0.0,0.0,0.0
04/04/2023,05:52:51,0.007,0.0,0.0,0.0
04/04/2023,05:53:51,0.007,0.0,0.0,0.0
04/04/2023,05:54:51,0.007,0.0,0.0,0.0
04/04/2023,05:55:51,0.008,0.0,0.001,0.001
04/04/2023,05:56:51,0.008,0.0,0.001,0.0
04/04/2023,05:57:52,0.008,0.0,0.001,0.0
04/04/2023,05:58:51,0.009,0.0,0.001,0.0
04/04/2023,05:59:51,0.009,0.0,0.001,0.0
04/04/2023,06:00:51,0.009,0.0,0.001,0.0
04/04/2023,06:01:51,0.010,0.0,0.001,0.0
04/04/2023,06:02:51,0.011,0.0,0.002,0.001
04/04/2023,06:03:51,0.011,0.0,0.002,0.0
04/04/2023,06:04:51,0.011,0.0,0.002,0.0
04/04/2023,06:05:51,0.013,0.0,0.002,0.0
04/04/2023,06:06:51,0.012,0.0,0.002,0.0
04/04/2023,06:07:51,0.014,0.0,0.003,0.001
04/04/2023,06:08:51,0.014,0.0,0.003,0.0
04/04/2023,06:09:51,0.015,0.0,0.003,0.0
04/04/2023,06:10:51,0.014,0.0,0.003,0.0
04/04/2023,06:11:52,0.015,0.0,0.004,0.001
04/04/2023,06:12:51,0.016,0.0,0.004,0.0
04/04/2023,06:13:51,0.015,0.0,0.004,0.0
04/04/2023,06:14:51,0.017,0.0,0.004,0.0
04/04/2023,06:15:51,0.018,0.0,0.005,0.001
04/04/2023,06:16:51,0.018,0.0,0.005,0.0
04/04/2023,06:17:51,0.018,0.0,0.005,0.0
04/04/2023,06:18:51,0.019,0.0,0.006,0.001
04/04/2023,06:19:51,0.020,0.0,0.006,0.0
04/04/2023,06:20:51,0.020,0.0,0.006,0.0
04/04/2023,06:21:51,0.021,0.0,0.007,0.001
04/04/2023,06:22:51,0.022,0.0,0.007,0.0
04/04/2023,06:23:51,0.023,0.0,0.007,0.0
04/04/2023,06:24:52,0.024,0.0,0.008,0.001
04/04/2023,06:25:51,0.025,0.0,0.008,0.0
04/04/2023,06:26:52,0.026,0.0,0.009,0.001
04/04/2023,06:27:51,0.027,0.0,0.009,0.0
04/04/2023,06:28:51,0.027,0.0,0.009,0.0
04/04/2023,06:29:51,0.028,0.0,0.01,0.001
04/04/2023,06:30:51,0.030,0.0,0.01,0.0
04/04/2023,06:31:51,0.030,0.0,0.011,0.001
04/04/2023,06:32:51,0.031,0.0,0.011,0.0
04/04/2023,06:33:51,0.031,0.0,0.012,0.001
04/04/2023,06:34:51,0.033,0.0,0.012,0.0
04/04/2023,06:35:51,0.033,0.0,0.013,0.001
04/04/2023,06:36:51,0.034,0.0,0.013,0.0
04/04/2023,06:37:50,0.035,0.0,0.014,0.001
04/04/2023,06:38:51,0.036,0.0,0.015,0.001
04/04/2023,06:39:51,0.036,0.0,0.015,0.0
04/04/2023,06:40:51,0.038,0.0,0.016,0.001
04/04/2023,06:41:51,0.040,0.0,0.017,0.001
04/04/2023,06:42:51,0.041,0.0,0.017,0.0
04/04/2023,06:43:51,0.042,0.0,0.018,0.001
04/04/2023,06:44:51,0.042,0.0,0.019,0.001
04/04/2023,06:45:51,0.044,0.0,0.019,0.0
04/04/2023,06:46:51,0.046,0.0,0.02,0.001
04/04/2023,06:47:51,0.047,0.0,0.021,0.001
04/04/2023,06:48:51,0.049,0.0,0.022,0.001
04/04/2023,06:49:52,0.049,0.0,0.022,0.0
04/04/2023,06:50:51,0.050,0.0,0.023,0.001
04/04/2023,06:51:51,0.052,0.0,0.024,0.001
04/04/2023,06:52:51,0.053,0.0,0.025,0.001
04/04/2023,06:53:51,0.055,0.0,0.026,0.001
04/04/2023,06:54:51,0.057,0.0,0.027,0.001
04/04/2023,06:55:51,0.058,0.0,0.028,0.001
04/04/2023,06:56:52,0.059,0.0,0.029,0.001
04/04/2023,06:57:51,0.061,0.0,0.03,0.001
04/04/2023,06:58:52,0.063,0.0,0.031,0.001
04/04/2023,06:59:51,0.064,0.0,0.032,0.001
04/04/2023,07:00:54,0.066,0.0,0.033,0.001
04/04/2023,07:01:52,0.067,0.0,0.034,0.001
04/04/2023,07:02:51,0.069,0.0,0.035,0.001
04/04/2023,07:03:51,0.071,0.0,0.036,0.001
04/04/2023,07:04:51,0.072,0.0,0.038,0.002
04/04/2023,07:05:52,0.074,0.0,0.039,0.001
04/04/2023,07:06:52,0.076,0.0,0.04,0.001
04/04/2023,07:07:52,0.078,0.0,0.041,0.001
04/04/2023,07:08:51,0.079,0.0,0.043,0.002
04/04/2023,07:09:51,0.083,0.0,0.044,0.001
04/04/2023,07:10:51,0.084,0.0,0.045,0.001
04/04/2023,07:11:51,0.086,0.0,0.047,0.002
04/04/2023,07:12:51,0.087,0.0,0.048,0.001
04/04/2023,07:13:51,0.089,0.0,0.05,0.002
04/04/2023,07:14:52,0.092,0.0,0.051,0.001
04/04/2023,07:15:52,0.094,0.0,0.053,0.002
04/04/2023,07:16:51,0.096,0.0,0.054,0.001
04/04/2023,07:17:51,0.098,0.0,0.056,0.002
04/04/2023,07:18:51,0.100,0.0,0.058,0.002
04/04/2023,07:19:51,0.102,0.0,0.059,0.001
04/04/2023,07:20:51,0.104,0.0,0.061,0.002
04/04/2023,07:21:51,0.107,0.0,0.063,0.002
04/04/2023,07:22:51,0.110,0.0,0.065,0.002
04/04/2023,07:23:51,0.112,0.0,0.066,0.001
04/04/2023,07:24:51,0.113,0.0,0.068,0.002
04/04/2023,07:25:51,0.116,0.0,0.07,0.002
04/04/2023,07:26:51,0.119,0.0,0.072,0.002
04/04/2023,07:27:51,0.121,0.0,0.074,0.002
04/04/2023,07:28:51,0.124,0.0,0.076,0.002
04/04/2023,07:29:52,0.126,0.0,0.078,0.002
04/04/2023,07:30:51,0.130,0.0,0.08,0.002
04/04/2023,07:31:52,0.133,0.0,0.083,0.003
04/04/2023,07:32:52,0.134,0.0,0.085,0.002
04/04/2023,07:33:52,0.137,0.0,0.087,0.002
04/04/2023,07:34:52,0.141,0.0,0.09,0.003
04/04/2023,07:35:51,0.143,0.0,0.092,0.002
04/04/2023,07:36:51,0.146,0.0,0.094,0.002
04/04/2023,07:37:51,0.149,0.0,0.097,0.003
04/04/2023,07:38:51,0.151,0.0,0.099,0.002
04/04/2023,07:39:51,0.154,0.0,0.102,0.003
04/04/2023,07:40:51,0.157,0.0,0.104,0.002
04/04/2023,07:41:51,0.159,0.0,0.107,0.003
04/04/2023,07:42:51,0.164,0.0,0.11,0.003
04/04/2023,07:43:52,0.165,0.0,0.113,0.003
04/04/2023,07:44:52,0.169,0.0,0.115,0.002
04/04/2023,07:45:51,0.173,0.0,0.118,0.003
04/04/2023,07:46:51,0.176,0.0,0.121,0.003
04/04/2023,07:47:51,0.179,0.0,0.124,0.003
04/04/2023,07:48:51,0.182,0.0,0.127,0.003
04/04/2023,07:49:52,0.186,0.0,0.13,0.003
04/04/2023,07:50:51,0.189,0.0,0.133,0.003
04/04/2023,07:51:51,0.193,0.0,0.136,0.003
04/04/2023,07:52:51,0.196,0.0,0.14,0.004
04/04/2023,07:53:52,0.199,0.0,0.143,0.003
04/04/2023,07:54:51,0.203,0.0,0.146,0.003
04/04/2023,07:55:51,0.208,0.0,0.15,0.004
04/04/2023,07:56:51,0.211,0.0,0.153,0.003
04/04/2023,07:57:51,0.214,0.0,0.157,0.004
04/04/2023,07:58:51,0.218,1.0,0.16,0.003
04/04/2023,07:59:51,0.222,1.0,0.164,0.004
04/04/2023,08:00:51,0.225,1.0,0.168,0.004
04/04/2023,08:01:51,0.229,1.0,0.172,0.004
04/04/2023,08:02:51,0.233,1.0,0.175,0.003
04/04/2023,08:03:51,0.237,1.0,0.179,0.004
04/04/2023,08:04:51,0.241,1.0,0.183,0.004
04/04/2023,08:05:51,0.244,1.0,0.187,0.004
04/04/2023,08:06:51,0.248,1.0,0.191,0.004
04/04/2023,08:07:52,0.253,1.0,0.196,0.005
04/04/2023,08:08:51,0.257,1.0,0.2,0.004
04/04/2023,08:09:51,0.261,1.0,0.204,0.004
04/04/2023,08:10:51,0.266,1.0,0.209,0.005
04/04/2023,08:11:51,0.269,1.0,0.213,0.004
04/04/2023,08:12:51,0.273,1.0,0.217,0.004
04/04/2023,08:13:51,0.278,1.0,0.222,0.005
04/04/2023,08:14:51,0.282,1.0,0.227,0.005
04/04/2023,08:15:51,0.286,1.0,0.232,0.005
04/04/2023,08:16:52,0.291,1.0,0.236,0.004
04/04/2023,08:17:51,0.295,1.0,0.241,0.005
04/04/2023,08:18:51,0.300,1.0,0.246,0.005
04/04/2023,08:19:51,0.304,1.0,0.251,0.005
04/04/2023,08:20:52,0.309,1.0,0.256,0.005
04/04/2023,08:21:52,0.313,1.0,0.262,0.006
04/04/2023,08:22:52,0.318,1.0,0.267,0.005
04/04/2023,08:23:51,0.324,1.0,0.272,0.005
04/04/2023,08:24:51,0.328,1.0,0.277,0.005
04/04/2023,08:25:51,0.332,1.0,0.283,0.006
04/04/2023,08:26:51,0.336,1.0,0.288,0.005
04/04/2023,08:27:51,0.342,1.0,0.294,0.006
04/04/2023,08:28:51,0.346,1.0,0.3,0.006
04/04/2023,08:29:52,0.351,1.0,0.306,0.006
04/04/2023,08:30:52,0.356,1.0,0.312,0.006
04/04/2023,08:31:52,0.361,1.0,0.318,0.006
04/04/2023,08:32:51,0.366,1.0,0.324,0.006
04/04/2023,08:33:51,0.371,1.0,0.33,0.006
04/04/2023,08:34:51,0.377,1.0,0.336,0.006
04/04/2023,08:35:51,0.380,1.0,0.342,0.006
04/04/2023,08:36:51,0.385,1.0,0.349,0.007
04/04/2023,08:37:52,0.390,1.0,0.355,0.006
04/04/2023,08:38:52,0.396,1.0,0.362,0.007
04/04/2023,08:39:51,0.401,1.0,0.368,0.006
04/04/2023,08:40:51,0.406,1.0,0.375,0.007
04/04/2023,08:41:51,0.411,1.0,0.382,0.007
04/04/2023,08:42:51,0.416,1.0,0.389,0.007
04/04/2023,08:43:51,0.422,1.0,0.396,0.007
04/04/2023,08:44:52,0.428,1.0,0.403,0.007
04/04/2023,08:45:51,0.433,1.0,0.41,0.007
04/04/2023,08:46:51,0.436,1.0,0.417,0.007
04/04/2023,08:47:52,0.443,1.0,0.425,0.008
04/04/2023,08:48:53,0.447,1.0,0.432,0.007
04/04/2023,08:49:52,0.453,1.0,0.44,0.008
04/04/2023,08:50:51,0.458,1.0,0.447,0.007
04/04/2023,08:51:51,0.463,1.0,0.455,0.008
04/04/2023,08:52:51,0.469,1.0,0.463,0.008
04/04/2023,08:53:52,0.473,1.0,0.471,0.008
04/04/2023,08:54:52,0.479,1.0,0.478,0.007
04/04/2023,08:55:51,0.485,1.0,0.486,0.008
04/04/2023,08:56:51,0.491,1.0,0.495,0.009
04/04/2023,08:57:52,0.496,1.0,0.503,0.008
04/04/2023,08:58:51,0.502,1.0,0.511,0.008
04/04/2023,08:59:51,0.507,1.0,0.519,0.008
04/04/2023,09:00:51,0.511,1.0,0.528,0.009
04/04/2023,09:01:51,0.516,1.0,0.536,0.008
04/04/2023,09:02:51,0.522,1.0,0.545,0.009
04/04/2023,09:03:52,0.528,1.0,0.554,0.009
04/04/2023,09:04:52,0.533,1.0,0.563,0.009
04/04/2023,09:05:51,0.539,1.0,0.572,0.009
04/04/2023,09:06:52,0.544,1.0,0.581,0.009
04/04/2023,09:07:51,0.549,1.0,0.59,0.009
04/04/2023,09:08:51,0.554,1.0,0.599,0.009
04/04/2023,09:09:51,0.560,1.0,0.608,0.009
04/04/2023,09:10:51,0.565,1.0,0.618,0.01
04/04/2023,09:11:51,0.570,1.0,0.627,0.009
04/04/2023,09:12:51,0.576,1.0,0.637,0.01
04/04/2023,09:13:51,0.584,1.0,0.646,0.009
04/04/2023,09:14:52,0.588,1.0,0.656,0.01
04/04/2023,09:15:51,0.596,1.0,0.666,0.01
04/04/2023,09:16:52,0.598,1.0,0.676,0.01
04/04/2023,09:17:52,0.605,1.0,0.686,0.01
04/04/2023,09:18:51,0.608,1.0,0.696,0.01
04/04/2023,09:19:51,0.614,1.0,0.706,0.01
04/04/2023,09:20:51,0.620,1.0,0.717,0.011
04/04/2023,09:21:51,0.627,1.0,0.727,0.01
04/04/2023,09:22:52,0.634,1.0,0.738,0.011
04/04/2023,09:23:52,0.639,1.0,0.748,0.01
04/04/2023,09:24:52,0.646,1.0,0.759,0.011
04/04/2023,09:25:51,0.650,1.0,0.77,0.011
04/04/2023,09:26:52,0.655,2.0,0.781,0.011
04/04/2023,09:27:51,0.659,2.0,0.791,0.01
04/04/2023,09:28:51,0.664,2.0,0.803,0.012
04/04/2023,09:29:52,0.670,2.0,0.814,0.011
04/04/2023,09:30:51,0.676,2.0,0.824,0.01
04/04/2023,09:31:51,0.681,2.0,0.836,0.012
04/04/2023,09:32:51,0.686,2.0,0.848,0.012
04/04/2023,09:33:51,0.692,2.0,0.859,0.011
04/04/2023,09:34:51,0.696,2.0,0.871,0.012
04/04/2023,09:35:51,0.703,2.0,0.882,0.011
04/04/2023,09:36:52,0.707,2.0,0.894,0.012
04/04/2023,09:37:51,0.712,2.0,0.906,0.012
04/04/2023,09:38:51,0.720,2.0,0.918,0.012
04/04/2023,09:39:51,0.726,2.0,0.93,0.012
04/04/2023,09:40:51,0.730,2.0,0.942,0.012
04/04/2023,09:41:51,0.736,2.0,0.954,0.012
04/04/2023,09:42:51,0.740,2.0,0.967,0.013
04/04/2023,09:43:51,0.744,2.0,0.979,0.012
04/04/2023,09:44:51,0.751,2.0,0.991,0.012
04/04/2023,09:45:52,0.757,2.0,1.004,0.013
04/04/2023,09:46:51,0.761,2.0,1.017,0.013
04/04/2023,09:47:52,0.769,2.0,1.029,0.012
04/04/2023,09:48:52,0.774,2.0,1.042,0.013
04/04/2023,09:49:51,0.779,2.0,1.055,0.013
04/04/2023,09:50:52,0.782,2.0,1.068,0.013
04/04/2023,09:51:52,0.789,2.0,1.081,0.013
04/04/2023,09:52:51,0.795,2.0,1.094,0.013
04/04/2023,09:53:51,0.801,2.0,1.108,0.014
04/04/2023,09:54:51,0.808,2.0,1.121,0.013
04/04/2023,09:55:52,0.814,2.0,1.135,0.014
04/04/2023,09:56:52,0.818,2.0,1.148,0.013
04/04/2023,09:57:52,0.824,2.0,1.162,0.014
04/04/2023,09:58:51,0.831,2.0,1.175,0.013
04/04/2023,09:59:51,0.836,2.0,1.19,0.015
04/04/2023,10:00:51,0.840,2.0,1.203,0.013
04/04/2023,10:01:51,0.843,2.0,1.218,0.015
04/04/2023,10:02:51,0.850,2.0,1.232,0.014
04/04/2023,10:03:52,0.855,2.0,1.246,0.014
04/04/2023,10:04:52,0.862,2.0,1.26,0.014
04/04/2023,10:05:52,0.866,2.0,1.275,0.015
04/04/2023,10:06:52,0.874,2.0,1.289,0.014
04/04/2023,10:07:51,0.876,2.0,1.303,0.014